Theta_e
310 310 310 310 310 310 310 310 310 310 311 310 310 310 310 311 313 324 329 316 319 317 315 319 319 320 320 321 323 323 322 325 327 331 333 333 331 330 329 329 331 332 338 347 347
309 310 310 309 309 310 310 311 311 311 311 311 311 311 311 311 318 325 322 317 313 314 316 319 321 322 321 322 323 321 322 325 327 329 330 332 330 329 329 329 330 338 339 344 346
309 309 309 309 309 310 310 311 311 311 311 312 313 314 313 312 326 324 316 316 315 313 320 322 321 321 322 324 323 322 321 324 325 326 326 328 328 329 328 328 329 329 343 345 346
308 308 309 309 309 310 310 311 311 312 312 313 315 315 314 319 328 321 317 314 315 316 321 321 321 322 324 323 324 322 324 324 323 324 325 325 327 328 328 329 330 330 330 337 343
308 308 309 309 309 310 311 311 312 312 313 315 317 316 317 329 326 318 318 318 317 318 320 321 321 323 324 324 323 323 324 324 324 324 324 325 326 327 328 329 330 329 329 330 331
308 308 309 309 309 310 311 312 312 313 314 317 316 315 325 328 323 321 322 321 322 321 321 321 323 324 323 323 323 324 324 324 324 324 324 324 325 327 328 328 328 328 329 328 329
307 307 308 309 310 311 311 312 313 313 316 317 316 318 326 325 322 322 321 321 323 323 323 323 322 322 324 324 326 324 322 324 325 325 326 326 326 326 328 328 328 328 329 329 329
307 307 308 309 310 311 312 313 313 314 316 317 316 322 329 320 321 321 322 323 322 322 322 323 322 323 323 324 323 322 323 324 326 326 326 326 327 328 330 329 328 328 329 329 329
306 307 308 309 310 311 313 314 314 314 315 315 324 328 331 320 323 323 322 324 323 321 322 321 321 323 324 324 323 325 325 327 327 327 326 326 326 328 331 331 330 329 329 330 330
306 307 308 309 311 312 314 317 318 313 323 323 325 328 329 326 325 323 321 324 322 323 322 323 323 324 325 324 327 326 326 327 326 327 326 325 327 329 332 333 335 337 338 339 339
306 306 308 309 311 312 316 320 323 326 322 325 324 326 326 324 322 323 321 322 322 323 324 326 323 326 325 324 324 324 325 324 326 326 325 325 326 332 335 335 337 341 343 346 350
306 306 308 309 311 315 318 320 318 318 322 322 321 322 324 323 324 323 321 323 323 325 323 325 327 324 324 324 325 325 326 328 327 327 325 327 337 338 337 339 340 344 345 347 351
306 307 308 310 313 317 320 318 318 319 324 322 321 323 323 323 325 324 322 324 323 324 323 328 325 324 324 326 326 328 326 325 325 325 326 327 340 341 338 339 340 340 345 347 348
307 307 308 310 317 318 321 317 317 319 328 322 320 322 323 323 322 324 323 324 323 324 324 326 324 324 326 327 325 329 326 325 325 326 328 329 342 342 338 339 340 340 340 342 347
307 307 308 310 315 320 317 316 316 320 339 326 323 322 322 323 325 323 323 324 325 324 324 327 325 325 328 327 325 326 325 326 328 327 328 330 340 342 336 337 339 339 339 340 343
307 307 308 314 315 318 317 316 319 328 335 325 322 321 322 323 323 323 323 324 325 324 324 326 325 324 326 325 326 325 326 329 330 329 331 335 340 341 340 336 338 338 338 338 340
308 307 308 310 319 317 316 319 328 334 328 325 321 322 324 324 323 323 324 325 327 327 327 325 324 326 327 327 328 328 329 332 335 338 334 334 329 337 335 335 336 338 338 338 338
309 308 311 313 315 315 318 325 333 327 327 325 324 324 325 325 324 325 326 327 327 329 331 329 329 328 327 327 327 328 329 333 333 332 330 332 337 336 334 334 335 335 337 336 336
309 314 318 318 318 317 322 328 330 328 327 325 324 325 325 325 325 326 331 329 328 328 334 333 330 328 327 326 326 329 331 330 331 333 332 336 338 334 335 335 334 335 336 334 332
311 315 318 320 317 319 324 328 328 326 325 325 325 326 326 325 326 329 329 329 329 327 328 331 332 329 328 327 327 331 329 333 333 334 333 329 338 338 340 336 333 333 333 332 331
313 322 322 319 318 322 325 325 325 324 325 326 327 327 328 327 327 327 331 329 327 327 327 331 334 332 331 331 331 329 325 329 332 331 332 333 335 338 335 334 332 331 331 330 330
317 321 321 317 321 322 323 324 316 323 325 326 327 327 327 326 326 328 332 331 326 327 329 332 329 329 329 328 329 329 329 330 330 331 331 332 329 334 333 332 332 331 330 329 329
319 321 320 318 324 323 323 323 322 323 324 325 325 327 327 327 329 328 330 326 325 327 328 330 333 332 329 330 331 330 330 328 328 331 331 331 331 333 333 332 332 331 330 329 329
320 323 323 320 320 325 326 322 323 324 324 325 326 325 326 326 326 328 328 326 324 324 325 330 328 330 331 330 328 327 326 325 326 328 328 328 328 328 334 332 331 330 329 328 328
318 325 326 322 320 323 325 323 323 324 324 325 325 325 325 327 326 326 326 326 325 323 328 332 332 329 329 328 326 325 326 325 325 326 327 327 330 333 333 332 330 331 331 329 328
320 323 326 325 324 322 320 324 324 324 323 324 326 324 325 327 327 329 327 327 331 329 330 331 332 330 330 328 327 327 326 327 327 326 325 328 330 328 331 330 329 327 328 327 327
317 318 324 322 325 324 323 324 325 324 324 325 324 325 325 328 329 329 329 328 328 327 329 330 332 331 329 327 328 329 330 329 328 327 326 328 329 328 327 326 326 327 327 326 324
Wind_Speed
13 14 16 18 19 21 21 21 23 23 24 23 22 21 21 23 25 7 8 1 4 5 7 11 8 10 11 11 14 10 8 11 16 15 8 6 5 11 4 10 6 3 16 19 17
14 16 18 19 20 22 23 23 24 25 24 22 21 20 20 21 17 15 8 3 5 6 6 11 10 8 9 11 6 7 10 15 13 12 14 12 8 10 10 8 12 19 15 18 15
16 17 19 21 23 24 25 25 25 24 22 21 20 19 18 17 9 6 3 4 4 5 10 17 11 9 14 9 7 9 11 17 16 13 14 12 11 13 8 13 15 14 12 14 13
16 17 20 22 24 25 26 26 24 23 22 21 17 15 14 5 3 5 4 3 6 5 11 13 8 13 12 7 3 8 12 7 11 13 6 10 14 12 11 13 13 13 10 7 13
17 19 21 23 25 26 28 25 23 24 21 16 14 11 6 7 5 6 3 2 6 8 14 9 9 11 11 3 3 10 12 5 9 8 10 14 12 12 16 12 13 11 13 14 8
17 20 22 24 25 27 29 23 24 23 15 12 10 8 5 10 6 7 6 6 11 12 6 11 10 11 9 7 11 13 10 12 11 9 10 12 13 15 11 9 11 8 6 10 10
18 21 23 25 26 28 27 24 26 18 11 9 8 4 9 8 1 4 4 9 3 9 8 4 9 10 13 13 7 10 12 17 10 5 6 6 13 14 4 8 8 7 7 7 6
20 22 24 26 27 29 24 24 21 11 8 8 8 4 7 2 2 5 7 8 6 7 8 8 9 11 13 12 14 14 16 16 12 2 6 8 4 8 8 7 10 8 9 2 1
22 23 25 26 27 27 23 23 14 9 8 7 6 8 6 4 7 5 5 10 5 6 7 8 10 12 15 14 14 15 12 5 7 9 4 9 10 9 8 7 7 4 9 10 6
22 24 25 27 28 23 22 20 14 10 8 6 12 8 9 2 4 4 5 8 6 5 9 10 10 12 14 10 9 14 11 4 4 7 7 14 9 6 8 11 18 18 18 16 14
23 25 26 27 28 18 26 9 4 4 10 10 3 8 1 1 2 6 3 7 6 9 11 15 9 4 13 9 9 10 7 8 5 3 3 11 6 10 13 18 16 14 13 9 15
23 26 26 26 22 13 12 7 8 7 9 10 8 7 3 3 4 3 4 7 5 11 2 9 7 8 5 3 7 7 9 11 9 2 5 12 20 25 23 10 16 17 16 16 19
23 26 27 28 14 9 7 9 11 8 6 7 7 9 9 10 4 5 7 7 10 10 8 9 13 3 5 9 7 10 3 8 11 12 11 3 17 27 28 14 17 16 17 17 17
23 24 25 31 8 14 3 11 12 6 4 10 9 5 5 8 5 3 2 8 4 11 1 6 9 3 7 5 8 7 8 8 11 12 12 12 5 11 15 15 16 15 16 17 16
21 22 23 17 15 9 11 13 11 4 4 13 10 6 8 9 4 7 4 6 13 2 6 6 2 1 9 11 6 13 5 11 10 13 12 12 10 8 22 11 14 15 15 16 18
19 20 23 8 12 13 15 14 8 4 3 5 6 8 10 9 5 6 6 7 6 8 7 10 3 3 8 8 8 8 11 16 15 11 5 4 8 7 7 9 12 14 14 14 17
19 19 20 16 6 15 15 9 5 6 8 6 9 12 13 6 6 9 9 11 6 8 9 7 9 4 4 12 9 6 9 9 6 4 4 15 8 9 9 10 12 12 14 14 15
20 21 19 15 12 12 11 5 6 3 3 4 8 12 6 9 5 5 8 7 3 12 14 6 9 5 4 7 9 9 6 6 12 10 9 15 11 11 14 12 13 14 14 15 16
19 13 12 10 7 5 6 7 6 4 5 5 6 9 8 1 4 10 9 13 7 10 9 9 6 3 3 7 8 10 9 11 9 14 10 5 5 4 12 11 11 12 14 14 14
14 12 15 8 3 6 5 9 6 6 6 5 9 9 9 10 7 7 7 8 7 6 9 9 7 2 3 5 9 2 7 8 4 7 13 15 8 5 8 8 10 13 12 12 13
6 4 6 4 4 5 7 7 2 3 2 4 9 4 4 8 9 5 11 9 7 9 8 10 7 8 9 3 10 11 11 9 7 7 10 9 7 8 7 8 9 11 10 10 12
6 4 5 6 5 6 10 5 2 5 4 2 8 7 1 3 4 4 14 8 7 8 9 8 4 7 15 9 10 8 5 9 4 11 10 10 10 10 9 9 7 9 11 11 10
4 6 4 5 5 8 5 3 4 3 6 4 2 6 6 1 3 5 10 5 6 9 6 9 5 6 7 10 3 9 9 7 9 4 10 9 7 6 9 13 12 10 10 10 9
4 4 4 5 8 10 8 7 6 5 3 3 1 1 3 2 2 2 7 3 5 10 2 3 3 6 8 14 11 8 10 11 9 7 11 12 16 15 13 9 6 7 4 9 10
4 4 3 4 8 10 10 7 10 7 3 4 3 7 5 3 4 4 3 8 5 4 3 4 4 7 10 13 14 14 12 12 11 8 8 13 12 15 13 13 13 14 8 7 8
4 4 5 6 6 9 5 10 12 10 7 7 5 7 3 4 3 4 2 3 7 4 4 3 4 9 11 15 12 10 14 13 8 8 11 9 9 11 12 10 14 16 14 14 13
7 9 4 4 4 6 9 10 10 8 1 6 7 3 3 10 11 9 6 4 4 3 5 4 5 7 9 11 14 11 11 9 8 11 12 11 11 14 14 12 14 13 17 16 16
Wind_Direction
350 350 348 344 338 338 337 334 333 329 324 322 319 320 319 322 321 305 266 64 242 258 254 282 239 249 229 256 253 282 269 268 264 272 260 89 34 349 345 309 322 273 101 120 142
348 347 344 337 335 337 335 332 331 327 322 321 317 318 317 327 317 261 252 258 240 221 248 250 251 211 245 233 225 224 245 254 283 353 343 2 12 330 321 325 309 77 94 120 147
346 343 338 333 334 336 333 330 330 327 322 318 316 314 315 329 283 90 61 181 185 203 273 288 293 278 259 241 219 246 250 298 328 2 332 314 312 279 341 306 334 355 125 154 152
341 338 333 332 335 335 330 329 330 326 322 317 316 311 314 316 344 101 87 162 208 242 274 267 255 260 260 222 171 270 267 294 303 308 276 268 268 304 302 291 310 291 295 192 163
337 336 332 332 335 333 328 329 330 323 320 318 316 314 334 236 236 124 141 192 221 238 254 263 259 263 280 310 292 242 276 319 287 261 263 268 283 289 271 287 283 330 300 290 254
337 334 332 332 335 330 329 329 330 323 318 323 323 328 267 260 91 145 178 212 248 237 256 271 305 356 309 306 297 319 313 296 275 284 266 251 267 259 276 345 316 313 339 320 305
338 333 332 332 334 330 329 329 327 318 311 319 319 331 266 290 138 166 208 248 293 292 271 255 307 299 305 283 286 286 280 271 226 225 291 330 257 239 249 331 332 291 355 13 303
337 335 333 334 331 332 328 330 325 302 301 310 306 278 279 95 269 224 240 257 245 267 276 305 294 283 276 281 286 251 253 255 134 270 146 266 330 107 45 344 333 0 298 116 163
336 335 334 333 332 333 326 326 314 295 285 297 294 223 266 151 228 215 264 251 188 256 265 290 276 271 273 251 258 234 266 110 137 120 308 275 316 54 54 340 278 280 343 1 5
332 335 334 334 334 332 327 323 298 293 287 258 269 269 241 221 79 308 268 276 248 272 245 230 251 241 228 261 349 346 360 110 280 104 26 302 308 30 34 31 42 33 19 6 0
333 334 335 336 336 332 333 333 242 199 235 275 180 259 249 61 245 226 163 221 247 243 262 204 261 300 20 360 334 315 322 284 266 16 325 289 314 53 37 65 51 47 30 19 55
333 334 335 334 333 338 332 3 28 318 299 236 252 271 283 260 241 227 204 249 214 272 225 239 225 52 355 330 303 282 275 13 314 131 251 281 31 24 78 316 62 53 63 34 38
333 334 337 333 324 314 337 15 342 332 264 194 209 211 180 218 279 167 216 244 268 271 246 289 67 81 286 279 277 242 8 353 305 299 257 216 44 356 308 76 68 49 71 66 43
330 335 335 337 318 331 343 351 346 347 281 151 187 178 180 229 224 46 270 312 243 302 201 307 80 313 283 257 320 22 15 309 303 291 284 192 127 194 284 83 74 54 40 61 62
327 328 332 338 302 334 346 334 335 284 255 161 136 112 175 221 126 159 203 251 278 279 267 77 235 288 292 25 342 308 355 298 285 278 294 147 112 312 328 85 73 63 44 40 55
321 325 326 344 295 284 323 323 294 238 210 138 143 188 185 211 186 117 203 232 292 273 238 298 64 277 344 304 260 301 283 274 264 254 239 132 140 213 223 67 76 71 53 38 47
316 315 308 297 280 331 327 296 236 258 144 143 174 173 190 158 153 192 194 205 259 234 205 194 193 149 248 295 210 239 318 318 250 327 90 243 305 122 121 81 79 65 55 49 46
316 312 303 268 280 302 311 255 258 110 120 144 172 207 142 169 140 179 195 155 67 346 320 250 154 154 28 357 338 313 318 11 332 335 336 218 20 105 83 65 72 56 53 38 46
319 314 261 273 250 287 273 240 342 1 90 175 229 182 136 110 274 215 67 37 47 359 340 347 54 98 87 326 329 357 14 336 310 292 269 101 28 263 96 58 40 57 50 33 47
331 302 260 170 214 250 251 258 318 27 350 284 211 221 177 173 233 230 133 39 355 7 343 357 306 130 14 280 221 349 311 343 329 330 336 330 121 197 46 29 23 37 35 32 31
305 251 120 196 209 235 242 269 127 64 306 285 299 198 329 135 263 197 83 72 9 349 308 26 323 313 279 26 5 345 339 357 349 313 317 337 21 93 72 64 11 17 20 42 26
272 245 134 178 223 228 243 266 358 149 211 286 302 316 321 21 261 33 65 54 347 348 343 45 315 306 308 334 38 323 9 37 357 330 336 317 306 71 66 71 45 19 21 24 6
255 235 159 203 231 229 211 255 249 185 203 215 281 345 354 32 27 0 96 41 4 36 24 351 23 309 289 140 67 358 5 333 326 294 283 297 306 151 84 3 23 11 13 352 3
279 227 147 203 272 285 274 232 204 311 138 295 290 210 214 217 223 129 131 104 47 69 327 322 303 293 295 311 327 312 311 310 311 292 308 307 325 342 47 52 27 340 352 349 337
253 260 354 194 240 255 281 208 204 180 238 204 190 239 225 234 236 212 39 143 153 129 185 27 289 312 309 316 305 293 303 318 309 331 334 329 346 16 7 353 2 44 38 330 322
291 306 327 280 282 213 231 251 221 178 189 200 258 224 84 266 12 349 65 341 58 100 38 41 303 309 301 284 292 325 297 296 29 2 318 308 39 8 45 348 354 351 24 28 18
245 286 280 236 217 230 218 236 233 168 312 292 213 161 218 62 43 37 49 40 49 4 349 313 343 316 297 326 320 284 29 37 356 354 342 331 11 7 360 357 346 25 21 11 358